Location: Wildcat Hills Observatory
(41.6350°N, 103.6812°W)
Time: 23:58:57
(UTC-06:00)

Cosmos 1634 Rocket - Visible Passes

Search period start: 31 August 2015 00:00
Search period end: 10 September 2015 00:00
Orbit: 959 x 993 km, 82.9° (Epoch: 31 August)

Date Brightness Start Highest point End Pass type
(mag) Time Alt. Az. Time Alt. Az. Time Alt. Az.
31 Aug 6.6 03:56:55 10° NNE 04:01:01 19° ENE 04:05:19 10° ESE visible
31 Aug 4.0 05:41:00 10° NNW 05:47:07 67° W 05:53:12 10° S visible
01 Sep 5.7 04:21:37 10° N 04:27:05 33° ENE 04:32:37 10° SE visible
02 Sep 4.6 04:46:49 10° N 04:52:55 60° E 04:59:00 10° SSE visible
03 Sep 6.7 03:28:43 10° NNE 03:32:16 16° ENE 03:36:07 10° ESE visible
03 Sep 3.9 05:12:22 10° N 05:18:33 77° W 05:24:41 10° S visible
04 Sep 5.8 03:53:12 10° NNE 03:58:24 29° ENE 04:03:43 10° SE visible
04 Sep 4.3 05:38:14 10° NNW 05:44:01 42° W 05:49:43 10° SSW visible
05 Sep 4.8 04:18:18 10° N 04:24:18 52° ENE 04:30:17 10° SSE visible
06 Sep 6.7 03:00:38 10° NE 03:03:32 14° ENE 03:06:46 10° E visible
06 Sep 3.9 04:43:46 10° N 04:49:58 88° W 04:56:09 10° S visible
07 Sep 6.0 03:24:48 10° NNE 03:29:43 25° ENE 03:34:46 10° SE visible
07 Sep 4.1 05:09:33 10° NNW 05:15:28 49° W 05:21:20 10° SSW visible
08 Sep 5.0 03:49:48 10° N 03:55:39 45° ENE 04:01:33 10° SSE visible
08 Sep 4.8 05:35:44 10° NNW 05:40:50 27° W 05:45:47 10° SW visible
09 Sep 6.7 02:32:47 10° NE 02:34:46 12° ENE 02:37:08 10° E visible
09 Sep 4.0 04:15:11 10° N 04:21:23 81° E 04:27:34 10° S visible
09 Sep 5.5 06:02:48 10° NW 06:06:05 14° W 06:09:02 10° WSW visible
